Location: Agendoh
(31.0664°N, 8.9343°W)
Time: 04:57:59
(UTC+00:00)

Cosmos 1151 Rocket - Pass Details

Date: 11 July 2022
Orbit: 591 x 615 km, 82.5° (Epoch: 16 August)

Event Time Altitude Azimuth Distance (km) Brightness Sun altitude
Rises 01:58:02 0° 350° (N) 2,886 7.3 -33.7°
Reaches altitude 10° 02:00:16 10° 347° (NNW) 1,976 6.2 -33.5°
Enters shadow 02:01:30 19° 344° (NNW) 1,494 5.5 -33.4°
